,,,PA_Meas_PMT16A,,PR_Meas_QMR101_102,,RH_Meas_QMH101,,SR_Meas_QMS101,,TA_Meas_QMH101,,GenWind,,GenWind,
date,time,status,PA,status,PR,status,RH,status,SR,status,TA,status,DirAvg,status,SpdAvg,
2011-01-11, 00:00:04,VALID,999.119,VALID,0,INVALID,163.601,VALID,0,VALID,25.2378,VALID,359,VALID,0.4625,
2011-01-11, 00:01:04,VALID,999.149,VALID,0,INVALID,163.632,VALID,0,VALID,25.2378,VALID,359,VALID,0.447266,
2011-01-11, 00:02:04,VALID,999.136,VALID,0,INVALID,163.647,VALID,0,VALID,25.2397,VALID,359,VALID,0.519922,
2011-01-11, 00:03:04,VALID,999.112,VALID,0,INVALID,163.609,VALID,0,VALID,25.2397,VALID,359,VALID,0.264062,
2011-01-11, 00:04:04,VALID,999.123,VALID,0,INVALID,163.624,VALID,0,VALID,25.2202,VALID,359,VALID,0.138672,
2011-01-11, 00:05:04,VALID,999.113,VALID,0,INVALID,163.609,VALID,0,VALID,25.2397,VALID,359,VALID,0.235547,
2011-01-11, 00:06:04,VALID,999.102,VALID,0,INVALID,163.624,VALID,0,VALID,25.1988,VALID,359,VALID,0.158203,
2011-01-11, 00:07:04,VALID,999.128,VALID,0,INVALID,163.647,VALID,0.100563,VALID,25.2202,VALID,359,VALID,0,
2011-01-11, 00:08:04,VALID,999.12,VALID,0,INVALID,163.639,VALID,0,VALID,25.1988,VALID,359,VALID,0,
2011-01-11, 00:09:04,VALID,999.114,VALID,0,INVALID,163.617,VALID,0,VALID,25.2202,VALID,359,VALID,0,
2011-01-11, 00:10:04,VALID,999.115,VALID,0,INVALID,163.617,VALID,0,VALID,25.2397,VALID,359,VALID,0,
2011-01-11, 00:11:04,VALID,999.137,VALID,0,INVALID,163.639,VALID,0,VALID,25.2397,VALID,359,VALID,0,
2011-01-11, 00:12:04,VALID,999.149,VALID,0,INVALID,163.647,VALID,0,VALID,25.2786,VALID,359,VALID,0,
2011-01-11, 00:13:04,VALID,999.161,VALID,0,INVALID,163.624,VALID,0.100563,VALID,25.2786,VALID,359,VALID,0,
2011-01-11, 00:14:04,VALID,999.14,VALID,0,INVALID,163.624,VALID,0,VALID,25.337,VALID,359,VALID,0,
2011-01-11, 00:15:04,VALID,999.135,VALID,0,INVALID,163.617,VALID,0,VALID,25.2962,VALID,359,VALID,0,
2011-01-11, 00:16:04,VALID,999.165,VALID,0,INVALID,163.617,VALID,0.100563,VALID,25.2767,VALID,359,VALID,0,
2011-01-11, 00:17:04,VALID,999.174,VALID,0,INVALID,163.617,VALID,0.100563,VALID,25.2962,VALID,359,VALID,0,
2011-01-11, 00:18:04,VALID,999.169,VALID,0,INVALID,163.647,VALID,0.100563,VALID,25.2981,VALID,359,VALID,0,
2011-01-11, 00:19:04,VALID,999.191,VALID,0,INVALID,163.609,VALID,0.100563,VALID,25.2572,VALID,359,VALID,0,
2011-01-11, 00:20:04,VALID,999.168,VALID,0,INVALID,163.578,VALID,0.100563,VALID,25.2572,VALID,359,VALID,0,
2011-01-11, 00:21:04,VALID,999.185,VALID,0,INVALID,163.632,VALID,0.100563,VALID,25.2786,VALID,359,VALID,0,
2011-01-11, 00:22:04,VALID,999.144,VALID,0,INVALID,163.609,VALID,0.100563,VALID,25.2786,VALID,359,VALID,0,
2011-01-11, 00:23:04,VALID,999.186,VALID,0,INVALID,163.601,VALID,0.100563,VALID,25.2397,VALID,359,VALID,0,
2011-01-11, 00:24:04,VALID,999.215,VALID,0,INVALID,163.624,VALID,0,VALID,25.1988,VALID,359,VALID,0,
2011-01-11, 00:25:04,VALID,999.173,VALID,0,INVALID,163.624,VALID,0.100563,VALID,25.1988,VALID,359,VALID,0,
2011-01-11, 00:26:04,VALID,999.161,VALID,0,INVALID,163.632,VALID,0,VALID,25.1794,VALID,359,VALID,0,
2011-01-11, 00:27:04,VALID,999.182,VALID,0,INVALID,163.632,VALID,0,VALID,25.1794,VALID,359,VALID,0,
2011-01-11, 00:28:04,VALID,999.159,VALID,0,INVALID,163.617,VALID,0,VALID,25.1599,VALID,359,VALID,0,
2011-01-11, 00:29:04,VALID,999.157,VALID,0,INVALID,163.617,VALID,0,VALID,25.121,VALID,359,VALID,0,
2011-01-11, 00:30:04,VALID,999.125,VALID,0,INVALID,163.639,VALID,0,VALID,25.1618,VALID,359,VALID,0,
2011-01-11, 00:31:04,VALID,999.103,VALID,0,INVALID,163.632,VALID,0,VALID,25.1423,VALID,359,VALID,0,
2011-01-11, 00:32:04,VALID,999.08,VALID,0,INVALID,163.624,VALID,0.100563,VALID,25.121,VALID,359,VALID,0,
2011-01-11, 00:33:04,VALID,999.058,VALID,0,INVALID,163.632,VALID,0.100563,VALID,25.121,VALID,359,VALID,0,
2011-01-11, 00:34:04,VALID,999.064,VALID,0,INVALID,163.609,VALID,0,VALID,25.1229,VALID,359,VALID,0,
2011-01-11, 00:35:04,VALID,999.066,VALID,0,INVALID,163.632,VALID,0,VALID,25.1015,VALID,359,VALID,0,
2011-01-11, 00:36:04,VALID,999.049,VALID,0,INVALID,163.624,VALID,0,VALID,25.1423,VALID,359,VALID,0,
2011-01-11, 00:37:04,VALID,999.041,VALID,0,INVALID,163.632,VALID,0.100563,VALID,25.1404,VALID,359,VALID,0,
2011-01-11, 00:38:04,VALID,999.001,VALID,0,INVALID,163.632,VALID,0.100563,VALID,25.1404,VALID,359,VALID,0,
2011-01-11, 00:39:04,VALID,998.978,VALID,0,INVALID,163.655,VALID,0.100563,VALID,25.121,VALID,359,VALID,0,
2011-01-11, 00:40:04,VALID,998.98,VALID,0,INVALID,163.632,VALID,0,VALID,25.1229,VALID,359,VALID,0,
2011-01-11, 00:41:04,VALID,998.952,VALID,0,INVALID,163.662,VALID,0.100563,VALID,25.082,VALID,359,VALID,0,
2011-01-11, 00:42:04,VALID,998.896,VALID,0,INVALID,163.639,VALID,0,VALID,25.1229,VALID,359,VALID,0.401953,
2011-01-11, 00:43:04,VALID,998.883,VALID,0,INVALID,163.617,VALID,0.100563,VALID,25.1229,VALID,359,VALID,0.45625,
2011-01-11, 00:44:04,VALID,998.856,VALID,0,INVALID,163.632,VALID,0.100563,VALID,25.121,VALID,359,VALID,0.407422,
2011-01-11, 00:45:04,VALID,998.877,VALID,0,INVALID,163.617,VALID,0.100563,VALID,25.121,VALID,359,VALID,0.245703,
2011-01-11, 00:46:04,VALID,998.841,VALID,0,INVALID,163.617,VALID,0.100563,VALID,25.1618,VALID,359,VALID,0.478125,
2011-01-11, 00:47:04,VALID,998.823,VALID,0,INVALID,163.624,VALID,0.100563,VALID,25.1423,VALID,359,VALID,0.403125,
2011-01-11, 00:48:04,VALID,998.84,VALID,0,INVALID,163.617,VALID,0.100563,VALID,25.1404,VALID,359,VALID,0.208594,
2011-01-11, 00:49:04,VALID,998.832,VALID,0,INVALID,163.647,VALID,0,VALID,25.1618,VALID,359,VALID,0.158984,
2011-01-11, 00:50:04,VALID,998.829,VALID,0,INVALID,163.624,VALID,0.100563,VALID,25.1404,VALID,359,VALID,0.10625,
2011-01-11, 00:51:04,VALID,998.787,VALID,0,INVALID,163.647,VALID,0.100563,VALID,25.1404,VALID,359,VALID,0.0820313,
2011-01-11, 00:52:04,VALID,998.781,VALID,0,INVALID,163.609,VALID,0.100563,VALID,25.121,VALID,359,VALID,0.320313,
2011-01-11, 00:53:04,VALID,998.773,VALID,0,INVALID,163.632,VALID,0,VALID,25.1229,VALID,359,VALID,0.196875,
2011-01-11, 00:54:04,VALID,998.763,VALID,0,INVALID,163.632,VALID,0.100563,VALID,25.1229,VALID,359,VALID,0.0871094,
2011-01-11, 00:55:04,VALID,998.724,VALID,0,INVALID,163.632,VALID,0.100563,VALID,25.121,VALID,359,VALID,0,
2011-01-11, 00:56:04,VALID,998.75,VALID,0,INVALID,163.647,VALID,0.100563,VALID,25.0801,VALID,359,VALID,0.13125,
2011-01-11, 00:57:04,VALID,998.714,VALID,0,INVALID,163.624,VALID,0.100563,VALID,25.1015,VALID,359,VALID,0.05,
2011-01-11, 00:58:04,VALID,998.714,VALID,0,INVALID,163.639,VALID,0.100563,VALID,25.1034,VALID,359,VALID,0.501172,
2011-01-11, 00:59:04,VALID,998.683,VALID,0,INVALID,163.632,VALID,0,VALID,25.0839,VALID,352,VALID,0.641406,
2011-01-11, 01:00:04,VALID,998.695,VALID,0,INVALID,163.632,VALID,0,VALID,25.1034,VALID,346,VALID,0.587891,
2011-01-11, 01:01:04,VALID,998.691,VALID,0,INVALID,163.624,VALID,0.100563,VALID,25.1423,VALID,348,VALID,0.892969,
2011-01-11, 01:02:04,VALID,998.667,VALID,0,INVALID,163.624,VALID,0.100563,VALID,25.1404,VALID,350,VALID,0.571094,
2011-01-11, 01:03:04,VALID,998.672,VALID,0,INVALID,163.639,VALID,0,VALID,25.2007,VALID,350,VALID,0.533203,
2011-01-11, 01:04:04,VALID,998.668,VALID,0,INVALID,163.624,VALID,0,VALID,25.1988,VALID,349,VALID,0.658594,
2011-01-11, 01:05:04,VALID,998.687,VALID,0,INVALID,163.632,VALID,0.100563,VALID,25.2397,VALID,356,VALID,0.497266,
2011-01-11, 01:06:04,VALID,998.693,VALID,0,INVALID,163.617,VALID,0.100563,VALID,25.2572,VALID,355,VALID,0.342969,
2011-01-11, 01:07:04,VALID,998.663,VALID,0,INVALID,163.624,VALID,0.100563,VALID,25.2572,VALID,354,VALID,0.679688,
2011-01-11, 01:08:04,VALID,998.688,VALID,0,INVALID,163.632,VALID,0.100563,VALID,25.2767,VALID,344,VALID,0.582031,
2011-01-11, 01:09:04,VALID,998.647,VALID,0,INVALID,163.601,VALID,0.100563,VALID,25.3351,VALID,342,VALID,0.659375,
2011-01-11, 01:10:04,VALID,998.659,VALID,0,INVALID,163.609,VALID,0,VALID,25.4169,VALID,347,VALID,0.557813,
2011-01-11, 01:11:04,VALID,998.609,VALID,0,INVALID,163.632,VALID,0,VALID,25.4149,VALID,353,VALID,0.625391,
2011-01-11, 01:12:04,VALID,998.594,VALID,0,INVALID,163.601,VALID,0,VALID,25.4753,VALID,345,VALID,0.572656,
2011-01-11, 01:13:04,VALID,998.604,VALID,0,INVALID,163.617,VALID,0,VALID,25.4539,VALID,337,VALID,0.735937,
2011-01-11, 01:14:04,VALID,998.568,VALID,0,INVALID,163.601,VALID,0,VALID,25.4734,VALID,338,VALID,0.295312,
2011-01-11, 01:15:04,VALID,998.571,VALID,0,INVALID,163.609,VALID,0,VALID,25.5142,VALID,348,VALID,0.694531,
2011-01-11, 01:16:04,VALID,998.591,VALID,0,INVALID,163.594,VALID,0,VALID,25.5123,VALID,345,VALID,0.308594,
2011-01-11, 01:17:04,VALID,998.579,VALID,0,INVALID,163.609,VALID,0,VALID,25.5727,VALID,342,VALID,0.25,
2011-01-11, 01:18:04,VALID,998.584,VALID,0,INVALID,163.601,VALID,0,VALID,25.5921,VALID,355,VALID,0.603125,
2011-01-11, 01:19:04,VALID,998.584,VALID,0,INVALID,163.594,VALID,0,VALID,25.5921,VALID,352,VALID,0.519531,
2011-01-11, 01:20:04,VALID,998.579,VALID,0,INVALID,163.624,VALID,0,VALID,25.6311,VALID,352,VALID,0.486328,
2011-01-11, 01:21:04,VALID,998.556,VALID,0,INVALID,163.617,VALID,0,VALID,25.5902,VALID,352,VALID,0.447266,
2011-01-11, 01:22:04,VALID,998.516,VALID,0,INVALID,163.594,VALID,0,VALID,25.5921,VALID,352,VALID,0.38125,
2011-01-11, 01:23:04,VALID,998.508,VALID,0,INVALID,163.609,VALID,0,VALID,25.5513,VALID,341,VALID,0.635938,
2011-01-11, 01:24:04,VALID,998.496,VALID,0,INVALID,163.617,VALID,0,VALID,25.5727,VALID,341,VALID,0.624609,
2011-01-11, 01:25:04,VALID,998.46,VALID,0,INVALID,163.617,VALID,0,VALID,25.5298,VALID,344,VALID,0.582422,
2011-01-11, 01:26:04,VALID,998.447,VALID,0,INVALID,163.624,VALID,0,VALID,25.5318,VALID,347,VALID,0.583594,
2011-01-11, 01:27:04,VALID,998.444,VALID,0,INVALID,163.601,VALID,0,VALID,25.5318,VALID,348,VALID,0.513672,
2011-01-11, 01:28:04,VALID,998.404,VALID,0,INVALID,163.601,VALID,0,VALID,25.5318,VALID,348,VALID,0.569922,
2011-01-11, 01:29:04,VALID,998.416,VALID,0,INVALID,163.624,VALID,0,VALID,25.5318,VALID,348,VALID,0.636719,
2011-01-11, 01:30:04,VALID,998.394,VALID,0,INVALID,163.594,VALID,0,VALID,25.5123,VALID,349,VALID,0.478516,
2011-01-11, 01:31:04,VALID,998.413,VALID,0,INVALID,163.601,VALID,0,VALID,25.5123,VALID,349,VALID,0.510156,
2011-01-11, 01:32:04,VALID,998.409,VALID,0,INVALID,163.617,VALID,0,VALID,25.5104,VALID,349,VALID,0.576172,
2011-01-11, 01:33:04,VALID,998.401,VALID,0,INVALID,163.601,VALID,0,VALID,25.4909,VALID,345,VALID,0.473047,
2011-01-11, 01:34:04,VALID,998.403,VALID,0,INVALID,163.609,VALID,0,VALID,25.4928,VALID,346,VALID,0.589844,
2011-01-11, 01:35:04,VALID,998.412,VALID,0,INVALID,163.609,VALID,0,VALID,25.5123,VALID,348,VALID,0.544531,
2011-01-11, 01:36:04,VALID,998.41,VALID,0,INVALID,163.609,VALID,0,VALID,25.5123,VALID,348,VALID,0.443359,
2011-01-11, 01:37:04,VALID,998.384,VALID,0,INVALID,163.601,VALID,0,VALID,25.5123,VALID,348,VALID,0.541406,
2011-01-11, 01:38:04,VALID,998.404,VALID,0,INVALID,163.594,VALID,0,VALID,25.5123,VALID,348,VALID,0.332422,
2011-01-11, 01:39:04,VALID,998.367,VALID,0,INVALID,163.609,VALID,0.100563,VALID,25.5318,VALID,348,VALID,0.516406,
2011-01-11, 01:40:04,VALID,998.4,VALID,0,INVALID,163.586,VALID,0,VALID,25.5707,VALID,349,VALID,0.746094,
2011-01-11, 01:41:04,VALID,998.393,VALID,0,INVALID,163.617,VALID,0,VALID,25.6097,VALID,16,VALID,0.988281,
2011-01-11, 01:42:04,VALID,998.415,VALID,0,INVALID,163.594,VALID,0,VALID,25.6681,VALID,341,VALID,0.689844,
2011-01-11, 01:43:04,VALID,998.39,VALID,0,INVALID,163.594,VALID,0,VALID,25.6856,VALID,326,VALID,0.172266,
2011-01-11, 01:44:04,VALID,998.378,VALID,0,INVALID,163.578,VALID,0,VALID,25.7246,VALID,326,VALID,0.394141,
2011-01-11, 01:45:04,VALID,998.393,VALID,0,INVALID,163.601,VALID,0,VALID,25.746,VALID,326,VALID,0.189063,
2011-01-11, 01:46:04,VALID,998.401,VALID,0,INVALID,163.624,VALID,0,VALID,25.785,VALID,326,VALID,0.345313,
2011-01-11, 01:47:04,VALID,998.385,VALID,0,INVALID,163.578,VALID,0,VALID,25.7655,VALID,340,VALID,0.296484,
2011-01-11, 01:48:04,VALID,998.372,VALID,0,INVALID,163.601,VALID,0,VALID,25.7655,VALID,340,VALID,0.189063,
2011-01-11, 01:49:04,VALID,998.378,VALID,0,INVALID,163.601,VALID,0,VALID,25.746,VALID,348,VALID,0.367578,
2011-01-11, 01:50:04,VALID,998.356,VALID,0,INVALID,163.563,VALID,0,VALID,25.785,VALID,348,VALID,0.284375,
2011-01-11, 01:51:04,VALID,998.369,VALID,0,INVALID,163.578,VALID,0,VALID,25.7655,VALID,348,VALID,0.214844,
2011-01-11, 01:52:04,VALID,998.385,VALID,0,INVALID,163.571,VALID,0,VALID,25.7265,VALID,348,VALID,0.265625,
2011-01-11, 01:53:04,VALID,998.314,VALID,0,INVALID,163.571,VALID,0,VALID,25.7071,VALID,348,VALID,0.314453,
2011-01-11, 01:54:04,VALID,998.306,VALID,0,INVALID,163.601,VALID,0,VALID,25.6876,VALID,348,VALID,0.282422,
2011-01-11, 01:55:04,VALID,998.311,VALID,0,INVALID,163.601,VALID,0,VALID,25.6311,VALID,348,VALID,0.307422,
2011-01-11, 01:56:04,VALID,998.28,VALID,0,INVALID,163.586,VALID,0,VALID,25.6116,VALID,348,VALID,0.325781,
2011-01-11, 01:57:04,VALID,998.273,VALID,0,INVALID,163.601,VALID,0,VALID,25.5727,VALID,348,VALID,0.232422,
2011-01-11, 01:58:04,VALID,998.258,VALID,0,INVALID,163.617,VALID,0,VALID,25.5337,VALID,348,VALID,0.221094,
2011-01-11, 01:59:04,VALID,998.248,VALID,0,INVALID,163.609,VALID,0,VALID,25.5142,VALID,348,VALID,0.360938,
2011-01-11, 02:00:04,VALID,998.22,VALID,0,INVALID,163.594,VALID,0,VALID,25.4558,VALID,348,VALID,0.195703,
2011-01-11, 02:01:04,VALID,998.211,VALID,0,INVALID,163.594,VALID,0,VALID,25.4363,VALID,348,VALID,0.183203,
2011-01-11, 02:02:04,VALID,998.194,VALID,0,INVALID,163.609,VALID,0,VALID,25.3779,VALID,348,VALID,0.305469,
2011-01-11, 02:03:04,VALID,998.186,VALID,0,INVALID,163.609,VALID,0,VALID,25.3565,VALID,348,VALID,0.238281,
2011-01-11, 02:04:04,VALID,998.164,VALID,0,INVALID,163.609,VALID,0,VALID,25.3584,VALID,348,VALID,0.276563,
2011-01-11, 02:05:04,VALID,998.128,VALID,0,INVALID,163.624,VALID,0,VALID,25.3195,VALID,348,VALID,0.373437,
2011-01-11, 02:06:04,VALID,998.153,VALID,0,INVALID,163.601,VALID,0,VALID,25.3195,VALID,348,VALID,0.376172,
2011-01-11, 02:07:04,VALID,998.13,VALID,0,INVALID,163.609,VALID,0,VALID,25.2806,VALID,348,VALID,0.555859,
2011-01-11, 02:08:04,VALID,998.121,VALID,0,INVALID,163.632,VALID,0,VALID,25.2416,VALID,348,VALID,0.446484,
2011-01-11, 02:09:04,VALID,998.152,VALID,0,INVALID,163.632,VALID,0,VALID,25.2221,VALID,348,VALID,0.371875,
2011-01-11, 02:10:04,VALID,998.177,VALID,0,INVALID,163.639,VALID,0,VALID,25.1813,VALID,348,VALID,0.429688,
2011-01-11, 02:11:04,VALID,998.177,VALID,0,INVALID,163.632,VALID,0.100563,VALID,25.1404,VALID,348,VALID,0.398047,
2011-01-11, 02:12:04,VALID,998.193,VALID,0,INVALID,163.624,VALID,0.100563,VALID,25.1423,VALID,351,VALID,0.521094,
2011-01-11, 02:13:04,VALID,998.18,VALID,0,INVALID,163.617,VALID,0.100563,VALID,25.1229,VALID,351,VALID,0.3625,
2011-01-11, 02:14:04,VALID,998.161,VALID,0,INVALID,163.655,VALID,0.100563,VALID,25.1015,VALID,351,VALID,0.376172,
2011-01-11, 02:15:04,VALID,998.195,VALID,0,INVALID,163.632,VALID,0,VALID,25.1015,VALID,351,VALID,0,
2011-01-11, 02:16:04,VALID,998.143,VALID,0,INVALID,163.647,VALID,0,VALID,25.1034,VALID,351,VALID,0,
2011-01-11, 02:17:04,VALID,998.155,VALID,0,INVALID,163.624,VALID,0,VALID,25.1034,VALID,351,VALID,0,
2011-01-11, 02:18:04,VALID,998.174,VALID,0,INVALID,163.647,VALID,0.100563,VALID,25.1034,VALID,351,VALID,0,
2011-01-11, 02:19:04,VALID,998.154,VALID,0,INVALID,163.655,VALID,0,VALID,25.1034,VALID,351,VALID,0,
2011-01-11, 02:20:04,VALID,998.186,VALID,0,INVALID,163.632,VALID,0,VALID,25.0839,VALID,351,VALID,0,
2011-01-11, 02:21:04,VALID,998.192,VALID,0,INVALID,163.624,VALID,0.100563,VALID,25.0839,VALID,351,VALID,0,
2011-01-11, 02:22:04,VALID,998.184,VALID,0,INVALID,163.639,VALID,0.100563,VALID,25.0839,VALID,351,VALID,0,
2011-01-11, 02:23:04,VALID,998.217,VALID,0,INVALID,163.655,VALID,0,VALID,25.0839,VALID,351,VALID,0,
2011-01-11, 02:24:04,VALID,998.222,VALID,0,INVALID,163.632,VALID,0.100563,VALID,25.0625,VALID,351,VALID,0,
2011-01-11, 02:25:04,VALID,998.232,VALID,0,INVALID,163.639,VALID,0,VALID,25.0644,VALID,351,VALID,0,
2011-01-11, 02:26:04,VALID,998.241,VALID,0,INVALID,163.655,VALID,0,VALID,25.0663,VALID,351,VALID,0.0308594,
2011-01-11, 02:27:04,VALID,998.232,VALID,0,INVALID,163.647,VALID,0,VALID,25.0839,VALID,351,VALID,0.319922,
2011-01-11, 02:28:04,VALID,998.219,VALID,0,INVALID,163.647,VALID,0,VALID,25.0644,VALID,351,VALID,0.445313,
2011-01-11, 02:29:04,VALID,998.199,VALID,0,INVALID,163.624,VALID,0,VALID,25.0839,VALID,351,VALID,0.307422,
2011-01-11, 02:30:04,VALID,998.201,VALID,0,INVALID,163.632,VALID,0,VALID,25.0625,VALID,351,VALID,0.171094,
2011-01-11, 02:31:04,VALID,998.192,VALID,0,INVALID,163.639,VALID,0,VALID,25.1053,VALID,351,VALID,0.0925781,
2011-01-11, 02:32:04,VALID,998.174,VALID,0,INVALID,163.632,VALID,0,VALID,25.1053,VALID,351,VALID,0.210547,
2011-01-11, 02:33:04,VALID,998.192,VALID,0,INVALID,163.624,VALID,0,VALID,25.1248,VALID,351,VALID,0.236328,
2011-01-11, 02:34:04,VALID,998.194,VALID,0,INVALID,163.655,VALID,0,VALID,25.1248,VALID,351,VALID,0.0699219,
2011-01-11, 02:35:04,VALID,998.201,VALID,0,INVALID,163.639,VALID,0,VALID,25.1053,VALID,351,VALID,0.157031,
2011-01-11, 02:36:04,VALID,998.213,VALID,0,INVALID,163.647,VALID,0,VALID,25.1053,VALID,351,VALID,0.245703,
2011-01-11, 02:37:04,VALID,998.205,VALID,0,INVALID,163.647,VALID,0,VALID,25.0858,VALID,351,VALID,0.0703125,
2011-01-11, 02:38:04,VALID,998.18,VALID,0,INVALID,163.624,VALID,0,VALID,25.045,VALID,351,VALID,0.075,
2011-01-11, 02:39:04,VALID,998.174,VALID,0,INVALID,163.639,VALID,0,VALID,25.045,VALID,351,VALID,0.191797,
2011-01-11, 02:40:04,VALID,998.186,VALID,0,INVALID,163.639,VALID,0,VALID,25.0274,VALID,351,VALID,0.0140625,
2011-01-11, 02:41:04,VALID,998.137,VALID,0,INVALID,163.639,VALID,0,VALID,25.0255,VALID,351,VALID,0.219141,
2011-01-11, 02:42:04,VALID,998.127,VALID,0,INVALID,163.647,VALID,0,VALID,24.9866,VALID,351,VALID,0.226172,
2011-01-11, 02:43:04,VALID,998.076,VALID,0,INVALID,163.624,VALID,0,VALID,25.006,VALID,351,VALID,0.349219,
2011-01-11, 02:44:04,VALID,998.074,VALID,0,INVALID,163.647,VALID,0,VALID,25.0079,VALID,351,VALID,0.417969,
2011-01-11, 02:45:04,VALID,998.063,VALID,0,INVALID,163.647,VALID,0,VALID,24.9866,VALID,351,VALID,0.491797,
2011-01-11, 02:46:04,VALID,998.037,VALID,0,INVALID,163.639,VALID,0,VALID,24.9866,VALID,351,VALID,0.486719,
2011-01-11, 02:47:04,VALID,998.029,VALID,0,INVALID,163.655,VALID,0,VALID,24.9866,VALID,351,VALID,0.488281,
2011-01-11, 02:48:04,VALID,998.045,VALID,0,INVALID,163.655,VALID,0,VALID,25.0079,VALID,351,VALID,0.442969,
2011-01-11, 02:49:04,VALID,998.034,VALID,0,INVALID,163.655,VALID,0,VALID,25.0079,VALID,351,VALID,0.387109,
2011-01-11, 02:50:04,VALID,998.069,VALID,0,INVALID,163.639,VALID,0,VALID,24.9866,VALID,351,VALID,0.308203,
2011-01-11, 02:51:04,VALID,998.036,VALID,0,INVALID,163.624,VALID,0,VALID,25.0079,VALID,351,VALID,0.395312,
2011-01-11, 02:52:04,VALID,998.07,VALID,0,INVALID,163.639,VALID,0,VALID,24.9671,VALID,351,VALID,0.221094,
2011-01-11, 02:53:04,VALID,998.087,VALID,0,INVALID,163.662,VALID,0,VALID,24.969,VALID,351,VALID,0.255078,
2011-01-11, 02:54:04,VALID,998.079,VALID,0,INVALID,163.655,VALID,0,VALID,24.9709,VALID,351,VALID,0.296875,
2011-01-11, 02:55:04,VALID,998.042,VALID,0,INVALID,163.655,VALID,0,VALID,24.9282,VALID,351,VALID,0.304297,
2011-01-11, 02:56:04,VALID,998.051,VALID,0,INVALID,163.639,VALID,0,VALID,24.8892,VALID,351,VALID,0.301172,
2011-01-11, 02:57:04,VALID,998.064,VALID,0,INVALID,163.647,VALID,0,VALID,24.9106,VALID,351,VALID,0.355078,
2011-01-11, 02:58:04,VALID,998.048,VALID,0,INVALID,163.647,VALID,0,VALID,24.8697,VALID,351,VALID,0.437891,
2011-01-11, 02:59:04,VALID,998.056,VALID,0,INVALID,163.678,VALID,0,VALID,24.8503,VALID,351,VALID,0.434766,
2011-01-11, 03:00:04,VALID,998.028,VALID,0,INVALID,163.67,VALID,0,VALID,24.8327,VALID,351,VALID,0.367578,
2011-01-11, 03:01:04,VALID,998.028,VALID,0,INVALID,163.678,VALID,0,VALID,24.8132,VALID,351,VALID,0.531641,
2011-01-11, 03:02:04,VALID,998.021,VALID,0,INVALID,163.678,VALID,0,VALID,24.7743,VALID,351,VALID,0.450781,
2011-01-11, 03:03:04,VALID,998.031,VALID,0,INVALID,163.655,VALID,0,VALID,24.7548,VALID,351,VALID,0.470313,
2011-01-11, 03:04:04,VALID,998.005,VALID,0,INVALID,163.662,VALID,0,VALID,24.7159,VALID,351,VALID,0.453516,
2011-01-11, 03:05:04,VALID,998.047,VALID,0,INVALID,163.662,VALID,0,VALID,24.6945,VALID,349,VALID,0.398047,
2011-01-11, 03:06:04,VALID,998.025,VALID,0,INVALID,163.67,VALID,0,VALID,24.6945,VALID,349,VALID,0.45625,
2011-01-11, 03:07:04,VALID,998.021,VALID,0,INVALID,163.655,VALID,0,VALID,24.6945,VALID,349,VALID,0.374609,
2011-01-11, 03:08:04,VALID,998.027,VALID,0,INVALID,163.662,VALID,0,VALID,24.7353,VALID,349,VALID,0.301562,
2011-01-11, 03:09:04,VALID,998.035,VALID,0,INVALID,163.655,VALID,0,VALID,24.7335,VALID,349,VALID,0.327344,
2011-01-11, 03:10:04,VALID,998.051,VALID,0,INVALID,163.685,VALID,0,VALID,24.7335,VALID,349,VALID,0,
2011-01-11, 03:11:04,VALID,998.061,VALID,0,INVALID,163.662,VALID,0,VALID,24.7743,VALID,349,VALID,0,
2011-01-11, 03:12:04,VALID,998.084,VALID,0,INVALID,163.67,VALID,0,VALID,24.7529,VALID,349,VALID,0,
2011-01-11, 03:13:04,VALID,998.103,VALID,0,INVALID,163.639,VALID,0,VALID,24.7724,VALID,349,VALID,0.084375,
2011-01-11, 03:14:04,VALID,998.104,VALID,0,INVALID,163.685,VALID,0,VALID,24.7529,VALID,349,VALID,0,
2011-01-11, 03:15:04,VALID,998.133,VALID,0,INVALID,163.655,VALID,0,VALID,24.7724,VALID,349,VALID,0.084375,
2011-01-11, 03:16:04,VALID,998.167,VALID,0,INVALID,163.632,VALID,0,VALID,24.7919,VALID,349,VALID,0.560547,
2011-01-11, 03:17:04,VALID,998.169,VALID,0,INVALID,163.647,VALID,0,VALID,24.7919,VALID,347,VALID,0.489062,
2011-01-11, 03:18:04,VALID,998.187,VALID,0,INVALID,163.662,VALID,0,VALID,24.8132,VALID,348,VALID,0.546094,
2011-01-11, 03:19:04,VALID,998.192,VALID,0,INVALID,163.655,VALID,0,VALID,24.7919,VALID,349,VALID,0.277344,
2011-01-11, 03:20:04,VALID,998.196,VALID,0,INVALID,163.647,VALID,0,VALID,24.8132,VALID,349,VALID,0.414453,
2011-01-11, 03:21:04,VALID,998.197,VALID,0,INVALID,163.655,VALID,0,VALID,24.8132,VALID,349,VALID,0.480859,
2011-01-11, 03:22:04,VALID,998.186,VALID,0,INVALID,163.693,VALID,0,VALID,24.7724,VALID,335,VALID,0.479297,
2011-01-11, 03:23:04,VALID,998.199,VALID,0,INVALID,163.678,VALID,0,VALID,24.8132,VALID,355,VALID,0.53125,
2011-01-11, 03:24:04,VALID,998.188,VALID,0,INVALID,163.67,VALID,0,VALID,24.7919,VALID,354,VALID,0.507422,
2011-01-11, 03:25:04,VALID,998.193,VALID,0,INVALID,163.655,VALID,0,VALID,24.8327,VALID,353,VALID,0.749609,
2011-01-11, 03:26:04,VALID,998.192,VALID,0,INVALID,163.655,VALID,0,VALID,24.8308,VALID,332,VALID,0.495703,
2011-01-11, 03:27:04,VALID,998.155,VALID,0,INVALID,163.67,VALID,0,VALID,24.8503,VALID,335,VALID,0.517578,
2011-01-11, 03:28:04,VALID,998.17,VALID,0,INVALID,163.655,VALID,0,VALID,24.8716,VALID,336,VALID,0.379687,
2011-01-11, 03:29:04,VALID,998.168,VALID,0,INVALID,163.647,VALID,0,VALID,24.8503,VALID,336,VALID,0.404687,
2011-01-11, 03:30:04,VALID,998.163,VALID,0,INVALID,163.647,VALID,0,VALID,24.8911,VALID,336,VALID,0.544141,
2011-01-11, 03:31:04,VALID,998.158,VALID,0,INVALID,163.632,VALID,0,VALID,24.9106,VALID,336,VALID,0.436328,
2011-01-11, 03:32:04,VALID,998.157,VALID,0,INVALID,163.647,VALID,0,VALID,24.93,VALID,336,VALID,0.361328,
2011-01-11, 03:33:04,VALID,998.169,VALID,0,INVALID,163.639,VALID,0,VALID,24.969,VALID,336,VALID,0.283594,
2011-01-11, 03:34:04,VALID,998.172,VALID,0,INVALID,163.655,VALID,0,VALID,24.969,VALID,336,VALID,0.404297,
2011-01-11, 03:35:04,VALID,998.154,VALID,0,INVALID,163.632,VALID,0,VALID,24.969,VALID,336,VALID,0.364062,
2011-01-11, 03:36:04,VALID,998.16,VALID,0,INVALID,163.639,VALID,0,VALID,24.9495,VALID,336,VALID,0.441797,
2011-01-11, 03:37:04,VALID,998.168,VALID,0,INVALID,163.662,VALID,0,VALID,24.9087,VALID,339,VALID,0.419922,
2011-01-11, 03:38:04,VALID,998.16,VALID,0,INVALID,163.655,VALID,0,VALID,24.8892,VALID,340,VALID,0.369922,
2011-01-11, 03:39:04,VALID,998.147,VALID,0,INVALID,163.655,VALID,0,VALID,24.9106,VALID,340,VALID,0.291016,
2011-01-11, 03:40:04,VALID,998.167,VALID,0,INVALID,163.655,VALID,0,VALID,24.8716,VALID,340,VALID,0.3125,